CW1839 Catania IT current weather conditions

sailwx.info

Wind from 171

Air temperature 20.0° C
Dewpoint 18.3° C

Last reported at 2019-Sep-19 19:01 UTC.
Time now 2019-Sep-19 19:29 UTC

Location: N 37°33' E 015°05'.
View on Google Maps.

See reports from other nearby stations

  
Tides and Currents Weather Stations Pressure Air Temp Water Temp Dewpoint Dewpoint Depression Visibility Wind Speed Wind Dir Waves Ship Positions
date/time (UTC)wind fromknots sea level pressurealtimeterstation pressurevisibilityair tempwater tempwave heightnotes
2019-Sep-19 19:01 171 20.0
2019-Sep-19 18:46 169 20.0
2019-Sep-19 18:30 349 20.0
2019-Sep-19 18:16 206 0 19.4
2019-Sep-19 18:01 236 0 19.4
2019-Sep-19 17:46 306 3 19.4
2019-Sep-19 17:30 241 0 20.0
2019-Sep-19 17:16 257 1 20.0
2019-Sep-19 17:01 234 2 21.1
2019-Sep-19 16:46 216 21.1
2019-Sep-19 16:31 264 21.7
2019-Sep-19 16:15 233 0 21.7
2019-Sep-19 15:45 315 1 21.7
2019-Sep-19 15:31 010 5 22.2
2019-Sep-19 15:16 061 4 23.3
2019-Sep-19 15:01 24.4
2019-Sep-19 14:46 007 5 25.0
2019-Sep-19 14:31 037 6 26.1
2019-Sep-19 14:16 26.7
2019-Sep-19 14:01 356 4 28.9
2019-Sep-19 13:46 224 4 31.1
2019-Sep-19 13:31 192 6 32.2
2019-Sep-19 13:16 208 5 32.2
2019-Sep-19 12:45 196 0 32.8
2019-Sep-19 12:31 258 1 32.2
2019-Sep-19 12:01 258 3 31.7
2019-Sep-19 11:46 241 5 31.1
2019-Sep-19 11:31 222 4 30.6
2019-Sep-19 11:16 192 6 30.0
2019-Sep-19 10:46 192 5 29.4
2019-Sep-19 10:30 230 7 29.4
2019-Sep-19 10:15 226 7 28.9
2019-Sep-19 10:01 233 5 28.9
2019-Sep-19 09:46 226 6 28.3
2019-Sep-19 09:31 230 6 27.8
2019-Sep-19 09:15 223 5 27.8
2019-Sep-19 09:02 247 5 27.2
2019-Sep-19 08:47 157 1 27.2
2019-Sep-19 08:31 182 1 27.2
2019-Sep-19 08:16 181 27.2
2019-Sep-19 08:00 181 26.7
2019-Sep-19 07:31 198 25.6
2019-Sep-19 07:16 243 24.4
2019-Sep-19 07:01 241 24.4
2019-Sep-19 06:46 237 23.9
2019-Sep-19 06:31 239 0 23.3
2019-Sep-19 06:16 244 22.8
2019-Sep-19 06:01 254 22.2
2019-Sep-19 05:16 261 21.1
2019-Sep-19 05:01 261 21.1
2019-Sep-19 04:46 251 21.1
2019-Sep-19 04:31 253 21.1
2019-Sep-19 04:16 264 21.1
2019-Sep-19 04:01 277 21.1
2019-Sep-19 03:46 315 21.1
2019-Sep-19 03:31 031 20.6
2019-Sep-19 03:16 031 20.6
2019-Sep-19 03:01 031 20.6
2019-Sep-19 02:46 031 20.6
2019-Sep-19 02:31 031 21.1
2019-Sep-19 02:16 031 21.1
2019-Sep-19 02:00 031 21.1
2019-Sep-19 01:46 031 21.1
2019-Sep-19 01:31 031 21.7
2019-Sep-19 01:16 031 21.7
2019-Sep-19 01:01 031 21.7
2019-Sep-19 00:46 031 21.7
2019-Sep-19 00:30 031 21.7
2019-Sep-19 00:15 031 21.7
2019-Sep-19 00:01 031 21.7
2019-Sep-18 23:47 031 22.2
2019-Sep-18 23:31 031 22.2
2019-Sep-18 23:15 031 22.2
2019-Sep-18 23:01 031 22.2
2019-Sep-18 22:46 031 22.2
2019-Sep-18 22:30 031 22.8
2019-Sep-18 22:16 031 22.8
2019-Sep-18 22:00 031 22.8
2019-Sep-18 21:47 031 22.8
2019-Sep-18 21:31 031 22.8
2019-Sep-18 21:16 031 22.8
2019-Sep-18 21:00 031 22.8
2019-Sep-18 20:46 031 22.8
2019-Sep-18 20:32 031 22.8
2019-Sep-18 20:15 031 22.8
2019-Sep-18 20:01 031 22.8
2019-Sep-18 19:45 031 22.8
2019-Sep-18 19:31 080 23.3
2019-Sep-18 19:16 080 23.3
2019-Sep-18 19:01 080 23.3
2019-Sep-18 18:46 080 23.3
2019-Sep-18 18:32 080 23.3
2019-Sep-18 18:16 080 23.9
2019-Sep-18 18:01 080 23.9
2019-Sep-18 17:46 080 23.9
2019-Sep-18 17:15 080 23.9
2019-Sep-18 17:02 080 23.9
2019-Sep-18 16:46 080 24.4
2019-Sep-18 16:31 080 24.4
2019-Sep-18 16:01 076 25.6
2019-Sep-18 15:45 069 26.1
2019-Sep-18 15:31 093 26.1
2019-Sep-18 15:15 089 26.7
2019-Sep-18 15:01 095 27.2
2019-Sep-18 14:47 075 27.2
2019-Sep-18 14:30 082 27.2
2019-Sep-18 14:16 082 27.2
2019-Sep-18 14:01 090 27.8
2019-Sep-18 13:46 151 27.8
2019-Sep-18 13:16 090 28.3
2019-Sep-18 13:01 120 27.8
2019-Sep-18 12:45 086 27.2
2019-Sep-18 12:31 095 27.8
2019-Sep-18 12:16 066 27.8
2019-Sep-18 12:01 106 27.8
2019-Sep-18 11:47 076 27.8
2019-Sep-18 11:30 174 27.8
2019-Sep-18 11:17 099 27.8
2019-Sep-18 11:00 134 26.7
2019-Sep-18 10:31 141 26.7
2019-Sep-18 10:17 152 26.1
2019-Sep-18 10:01 169 26.1
2019-Sep-18 09:45 082 25.6
2019-Sep-18 09:30 167 25.6
2019-Sep-18 09:16 090 25.6
2019-Sep-18 09:01 086 24.4
2019-Sep-18 08:46 171 25.0
2019-Sep-18 08:31 085 25.0
2019-Sep-18 08:00 079 24.4
2019-Sep-18 07:46 112 23.9
2019-Sep-18 07:31 119 23.3
2019-Sep-18 07:16
2019-Sep-18 07:02 344 22.8
2019-Sep-18 06:47 344 22.8
2019-Sep-18 06:31 339 22.2
2019-Sep-18 06:15 302 21.7
2019-Sep-18 06:01 302 21.1
2019-Sep-18 05:45 302 20.6
2019-Sep-18 05:31 302 20.0
2019-Sep-18 05:16 302 19.4
2019-Sep-18 04:46 302 19.4
2019-Sep-18 04:31 302 19.4
2019-Sep-18 04:16 302 20.0
2019-Sep-18 03:46 302 20.0
2019-Sep-18 03:31 302 20.6
2019-Sep-18 03:16 289 20.6
2019-Sep-18 03:01 280 20.6
2019-Sep-18 02:46 280 20.6
2019-Sep-18 02:30 280 20.6
2019-Sep-18 02:15 280 20.6
2019-Sep-18 02:01 278 20.6
2019-Sep-18 01:46 278 20.6
2019-Sep-18 01:15 277 21.1
2019-Sep-18 01:00 277 21.1
2019-Sep-18 00:46 274 21.7
2019-Sep-18 00:16 275 21.7
2019-Sep-18 00:00 277 21.7
2019-Sep-17 23:47 274 21.7
2019-Sep-17 23:16 268 22.2
2019-Sep-17 22:46 260 22.2
2019-Sep-17 22:16 282 22.8
2019-Sep-17 21:46 236 22.8
2019-Sep-17 21:32 072 22.2
2019-Sep-17 21:16 072 22.8
2019-Sep-17 21:01 072 22.8
2019-Sep-17 20:46 072 22.8
2019-Sep-17 20:30 072 22.8
2019-Sep-17 20:16 072 22.8
2019-Sep-17 19:47 072 22.8
2019-Sep-17 19:16 072 22.8
2019-Sep-17 19:01 072 22.8